FENGYUN 1C DEB

Satellite information

Favourite Embed

Satellite Type and Status

DEBRISIN ORBIT

Key statistics

Satellite FENGYUN 1C DEB at a glance.

Uptime

9714

Days in orbit

Revolutions

≈ 14.3

Per day

Orbit

SSO

Sun Synchronous Orbit

Inclination

99.1

Latest

Satellite identification and parameters

Extended collection of information and parameters for FENGYUN 1C DEB.

Object identification

Identified? True

Debris? True

Object name: FENGYUN 1C DEB

International designator: 1999-025CES

Object number (NORAD): 31743

Object ID (CCSDS): 31743

Country: PEOPLES REPUBLIC OF CHINA (PRC)

Current information (Y/N): Y

RCS size: SMALL

Orbital parameters

Period: 100.609 minutes

Inclination: 99.1413 deg

SMA: 7165.59 km

Apoapsis: 814.242 km

Periapsis: 760.668 km

RAAN: 273.462 deg

Eccentricy: 0.00373827

Argument of periapsis: 222.3933 deg

Mean anomaly: 263.6783 deg

Mean motion: 14.31280742 rev/day

Mean motion (dot): 0.00007064 rev/day2

B* drag term: 0.0026653441 1/REarth

Two-line elements (TLE)

Creation date: Dec. 11, 2025, 7:14 p.m.

Reference frame: TEME

Reference center: EARTH

Epoch: Dec. 11, 2025, 2:28 p.m. UTC

TLE line 0: 0 FENGYUN 1C DEB

TLE line 1: 1 31743U 99025CES 25345.60282700 .00007064 00000-0 26653-2 0 9998

TLE line 2: 2 31743 99.1413 273.4620 0037383 222.3933 263.6783 14.31280742956242

Live tracking on map

Real-time ground track for satellite FENGYUN 1C DEB.

In-orbit conjunctions

A list of the most updated potential collisions computed for object FENGYUN 1C DEB.

Target Orbit TCA Probability of collision Miss distance Type
DMSP 5D-3 F18 DEB SSO 2025-10-16 13:50:10 0.0001379889 117.0 (m) DEBRIS
SL-12 R/B(AUX MOTOR) LEO 2025-06-19 05:07:28 0.0003598034 113.0 (m) ROCKET BODY
PEGASUS R/B(2) LEO 2025-01-13 11:37:45 0.0005636873 129.0 (m) ROCKET BODY
CZ-6A DEB LEO 2024-12-21 13:32:58 0.0002548624 842.0 (m) DEBRIS

Associated space launch

Chinese polar orbiting meteorological satellite

FENGYUN 1C DEB was lifted into orbit during the mission ‘Long March 4B | Feng Yun 1C’, on board a Long March 4B space rocket.

The launch took place on May 10, 1999, 1:33 a.m. from Launch Complex 7.

For more information about the launch, click the button.

Launch to space Long March 4B | Feng Yun 1C
Long March 4B | Feng Yun 1C

Agency: N/A

Status: Launch Successful

Launch date: May 10, 1999, 1:33 a.m. UTC

Rocket: Long March 4B

Launch pad: Launch Complex 7

Location: Taiyuan Satellite Launch Center, People's Republic of China

...

Latest news about this satellite

There are no fresh news available about this satellite. Check back as we update our databases every day.


Newsletter sign-up

Weekly statistics, charts and insights to help you stay on top of the space industry.